User: anonymous   Login
Location: Caltech
(34.1382°N, 118.1253°W)
Time: 06:42:15
(UTC-07:00)
Language:

Oscar 11 - Orbit

View from above orbital plane
View from above orbital plane
View from above satellite
View from above satellite

Ground track
Ground track

The orbit data is extracted from the following two-line orbital elements,

1 14781U 84021B   14302.14868627  .00001433  00000-0  18768-3 0  6494
2 14781 097.8363 359.5590 0010138 105.1449 255.0886 14.81847255647806
Epoch (UTC): 29 October 2014 03:34:06
Eccentricity: 0.0010138
inclination: 97.8363°
perigee height: 616 km
apogee height: 630 km
right ascension of ascending node: 359.5590°
argument of perigee: 105.1449°
revolutions per day: 14.81847255
mean anomaly at epoch: 255.0886°
orbit number at epoch: 64780

The dashed part of the orbit path shows where the satellite is in the earth's shadow,  

DLR